Location: Unspecified
(58.9933°N, 5.6375°E)
Time: 12:13:50
(UTC+02:00)

Cosmos 2058 - Visible Passes

Search period start: 26 August 2016 00:00
Search period end: 05 September 2016 00:00
Orbit: 565 x 585 km, 82.5° (Epoch: 25 August)

Date Brightness Start Highest point End Pass type
(mag) Time Alt. Az. Time Alt. Az. Time Alt. Az.
26 Aug 4.6 00:37:50 10° N 00:41:22 25° ENE 00:43:01 20° E visible
26 Aug 3.0 02:14:32 10° NNW 02:18:40 57° W 02:19:15 52° SW visible
26 Aug 5.3 03:54:09 10° WNW 03:54:43 10° WNW 03:55:16 10° W visible
27 Aug 4.3 00:41:21 10° N 00:45:05 30° ENE 00:46:25 25° E visible
27 Aug 3.3 02:18:13 10° NNW 02:22:14 46° W 02:22:39 44° WSW visible
28 Aug 4.0 00:44:53 10° N 00:48:47 36° ENE 00:49:50 31° E visible
28 Aug 3.7 02:21:55 10° NNW 02:25:47 37° W 02:26:04 37° WSW visible
28 Aug 5.5 23:13:28 10° NNE 23:14:20 11° NE 23:15:12 10° ENE visible
29 Aug 3.6 00:48:26 10° N 00:52:28 44° ENE 00:53:16 39° E visible
29 Aug 4.0 02:25:38 10° NNW 02:29:19 30° W 02:29:29 30° W visible
29 Aug 5.4 23:16:23 10° NNE 23:18:09 12° NE 23:19:55 10° ENE visible
30 Aug 3.2 00:52:00 10° N 00:56:08 54° ENE 00:56:42 49° ESE visible
30 Aug 4.3 02:29:24 10° NNW 02:32:50 25° W 02:32:56 25° W visible
30 Aug 5.2 23:19:37 10° NNE 23:21:57 14° NE 23:23:55 11° E visible
31 Aug 2.9 00:55:36 10° N 00:59:46 67° ENE 01:00:09 63° ESE visible
31 Aug 4.6 02:33:13 10° NW 02:36:20 21° W 02:36:22 21° W visible
31 Aug 5.0 23:22:58 10° NNE 23:25:44 17° NE 23:27:22 14° E visible
01 Sep 2.7 00:59:12 10° NNW 01:03:24 83° ENE 01:03:36 79° SE visible
01 Sep 4.9 02:37:06 10° NW 02:39:48 17° W 02:39:49 17° W visible
01 Sep 4.8 23:26:23 10° N 23:29:29 20° ENE 23:30:50 17° E visible
02 Sep 2.8 01:02:49 10° NNW 01:07:01 80° WSW 01:07:03 80° WSW visible
02 Sep 5.1 02:41:06 10° NW 02:43:17 14° W 02:43:18 14° W visible
02 Sep 4.5 23:29:51 10° N 23:33:13 23° ENE 23:34:18 21° E visible
03 Sep 3.0 01:06:27 10° NNW 01:10:32 65° W 01:10:32 65° W visible
03 Sep 5.3 02:45:23 10° WNW 02:46:43 11° WNW 02:46:46 11° WNW visible
03 Sep 4.2 23:33:20 10° N 23:36:57 27° ENE 23:37:46 25° E visible
04 Sep 3.4 01:10:07 10° NNW 01:14:00 51° W 01:14:00 51° W visible
04 Sep 3.9 23:36:52 10° N 23:40:39 32° ENE 23:41:16 31° E visible
